Overview Statistics Trail Chart Weather Telemetry Raw packets
 

This is the latest recevied weather packets stored in our database for station/object S51DM-10. If no packets are shown the sender has not sent any weather packets the latest 10 day(s).

<< 1 2 3 4 >>
Time Temp. Humidity Pressure Rain* Wind** Luminosity Snow
1788565751 26.67° C 43% 1016.5 hPa - - - -
1788564851 26.67° C 41% 1016.5 hPa - - - -
1788563950 27.22° C 41% 1016.5 hPa - - - -
1788563049 27.78° C 41% 1016.3 hPa - - - -
1788562148 28.33° C 40% 1016.3 hPa - - - -
1788561247 28.89° C 40% 1016.3 hPa - - - -
1788560346 29.44° C 40% 1016.3 hPa - - - -
1788559445 30° C 40% 1016.3 hPa - - - -
1788558545 30° C 40% 1016.1 hPa - - - -
1788557644 30° C 41% 1016 hPa - - - -
1788556743 30° C 40% 1016.2 hPa - - - -
1788555841 30° C 40% 1016.3 hPa - - - -
1788554941 30° C 40% 1016.2 hPa - - - -
1788554040 29.44° C 41% 1016.4 hPa - - - -
1788553139 29.44° C 41% 1016.5 hPa - - - -
1788552238 30° C 40% 1016.7 hPa - - - -
1788551337 30° C 40% 1016.7 hPa - - - -
1788550436 30.56° C 38% 1016.9 hPa - - - -
1788549544 31.11° C 38% 1016.9 hPa - - - -
1788548635 31.11° C 37% 1016.9 hPa - - - -
1788547734 31.11° C 36% 1017.1 hPa - - - -
1788546833 31.67° C 35% 1017 hPa - - - -
1788545932 31.67° C 33% 1017 hPa - - - -
1788545031 32.22° C 32% 1016.8 hPa - - - -
1788544130 32.78° C 30% 1016.8 hPa - - - -

* Rain since midnight (hover to see other rain measurements)
** Current wind speed in m/s (hover to see current wind gust speed)